Current Version              Previous Version:    01  02  03  04  05  06  07  08  09  10  11  12  13  14  15  16  17  18  19  20  21  22  23  24  25  26  27  28  29  30  
   31  32  33  34  35  36  37  38  39  40  41  42  43  44  45  46  47  48  49  50  51  52  53  54  55  56  57  58  59  60  

[Printable]
638
ASUS44 KEWX 200910
RWRTX
SOUTH TEXAS REGIONAL WEATHER ROUNDUP
NATIONAL WEATHER SERVICE AUSTIN/SAN ANTONIO TX
400 AM CDT MON OCT 20 2014

NOTE: "FAIR" INDICATED FEW OR NO CLOUDS BELOW 12,000 FEET WITH NO
SIGNIFICANT WEATHER AND/OR OBSTRUCTIONS TO VISIBILITY.

* - THESE STATIONS ARE NOT NWS OR FAA STATIONS...AND ARE NOT SUBJECT
    TO NWS AND FAA QUALITY CONTROL.

TXZ171-172-183>190-201000-
TEXAS HILL COUNTRY AND EDWARDS PLATEAU

CITY           SKY/WX    TMP DP  RH WIND       PRES   REMARKS
JUNCTION       CLEAR     58  55  90 CALM      30.05S
*LLANO           N/A    N/A N/A N/A MISG        N/A
BURNET         PTCLDY    62  59  90 CALM      30.06F
*HORSESHOE BAY PTCLDY    60  60 100 CALM      30.04S
*KERRVILLE     CLEAR     61  58  90 CALM      30.05S
*FREDERICKSBRG CLOUDY    60  58  94 CALM      30.05S
*ROCKSPRINGS   MOCLDY    63  57  82 CALM      30.07S
*BOERNE STAGE  CLOUDY    66  61  82 SE6       30.04F
*CASTROVILLE   PTCLDY    67  62  82 E3        30.02F
HONDO          MOCLDY    63  63 100 E5        30.03F
*UVALDE        CLEAR     65  62  90 NE5       30.01F
DEL RIO        MOCLDY    69  61  75 E9        29.98S
LAUGHLIN AFB   CLOUDY    69  61  76 SE9       29.98F
CARRIZO SPRGS  CLEAR     64  61  88 E3        29.97S
$$

TXZ173-191>194-202-209-217>225-228-201000-
CENTRAL AND SOUTH CENTRAL TEXAS

CITY           SKY/WX    TMP DP  RH WIND       PRES   REMARKS
GEORGETOWN     PTCLDY    59  57  94 CALM      30.04S
AUSTIN/BERGSTM PTCLDY    58  57  97 CALM      30.03S
AUSTIN/MABRY   CLOUDY    66  62  87 CALM      30.04S
*AUSTIN/EXEC   CLOUDY    63  61  94 CALM      30.04S
*LAGO VISTA    CLOUDY    67  63  85 CALM      30.05S
SAN MARCOS     CLEAR     61  54  77 CALM      30.03F
NEW BRAUNFELS  PTCLDY    63  61  93 NE3       30.01F
RANDOLPH AFB   CLOUDY    67  63  87 E3        30.02F
PT SAN ANTONIO CLOUDY    69  65  85 E6        30.00F
SAN ANTONIO    CLOUDY    69  65  86 E5        30.02F
STINSON FIELD  PTCLDY    68  65  90 E3        30.00F
*PLEASANTON    CLOUDY    66  64  93 NE5       30.00S
*LA GRANGE     CLEAR     65  64  96 CALM      30.00S
*GIDDINGS      CLEAR     61  59  92 CALM      30.06S FOG
*GONZALES      CLEAR     63  62  99 N3        30.00S FOG
$$

TXZ163>164-176>182-195>201-210>213-226-227-235-201000-
SOUTHEAST TEXAS

CITY           SKY/WX    TMP DP  RH WIND       PRES   REMARKS
COLLEGE STN    CLEAR     63  57  81 CALM      30.03S
*BRYAN         CLEAR     59  57  94 CALM      30.04F
*CALDWELL      CLEAR     61  61 100 CALM      30.06S
*CROCKETT      CLEAR     63  57  82 E3        30.06S
*BRENHAM       CLEAR     63  61  95 CALM      30.02F
HUNTSVILLE     CLEAR     59  56  89 CALM      30.03S
CONROE         CLEAR     59  56  89 CALM      30.03F
HOUSTON BUSH   PTCLDY    62  59  90 E7        30.01F
HOUSTON HOBBY  PTCLDY    66  61  84 E6        30.00F
*HOUSTON SW AP PTCLDY    58  57  94 NE3       30.01S
PEARLAND       PTCLDY    65  61  87 NE5       30.01F
HOUSTON HOOKS  PTCLDY    63  59  87 E3        30.02F
ELLINGTON FLD  PTCLDY    86  66  51 CALM      30.00F
SUGAR LAND     PTCLDY    69  62  78 E7        30.00F
*HOUSTON EXEC  PTCLDY    63 N/A N/A E6        30.02S
*CLEVELAND MUN NOT AVBL
*WHARTON       CLEAR     65  63  92 CALM      30.00F
*COLUMBUS      FAIR      63  62  99 E3        30.00S FOG
$$

TXZ214>216-236>238-201000-
THE UPPER TEXAS COAST

CITY           SKY/WX    TMP DP  RH WIND       PRES   REMARKS
*ORANGE        PTCLDY    59  58  96 CALM      30.04F
PORT ARTHUR    PTCLDY    64  56  75 E6        30.01F
GALVESTON      PTCLDY    73  67  81 E9        30.00F
ANGLETON       CLEAR     64  63  96 N6        29.99F
*BAY CITY        N/A     67  66  97 NE5       29.98F
PALACIOS       CLEAR     66  64  93 NE7       29.97F
$$

TXZ229>234-239>247-201000-
TEXAS COASTAL BEND AND RIO GRANDE PLAINS

CITY           SKY/WX    TMP DP  RH WIND       PRES   REMARKS
VICTORIA       CLEAR     67  66  97 E7        29.98F FOG
*BEEVILLE      CLEAR     68  68 100 NE6       29.97S FOG
ROCKPORT       CLOUDY    73  69  87 VRB5      29.95F
*PORT ARANSAS  MOCLDY    77  70  78 E10       29.93F
*PORT LAVACA   CLEAR     70  67  89 E10       29.97F
*INGLESIDE     PTCLDY    73  69  87 NE5       29.94F
CORPUS CHRISTI MOCLDY    72  69  90 NE8       29.94F
CORPUS NAS     CLEAR     76  72  87 E9        29.93F
*ROBSTOWN      NOT AVBL
ALICE          CLEAR     69  67  93 NE6       29.94F
KINGSVILLE NAS PTCLDY    71  70  96 NE3       29.93F
COTULLA        MOCLDY    70  64  81 E6        29.98S
*FAITH RANCH   CLEAR     68  64  88 E6        29.98S
LAREDO         CLEAR     68  66  93 CALM      29.98F
$$

TXZ248>255-201000-
DEEP SOUTH TEXAS

CITY           SKY/WX    TMP DP  RH WIND       PRES   REMARKS
BROWNSVILLE    PTCLDY    72  69  90 CALM      29.91F
PORT ISABEL    PTCLDY    75  70  84 CALM      29.91F
*SOUTH PADRE   PTCLDY    79  68  69 E9        29.91F
HARLINGEN      MOCLDY    78  68  71 NW3       29.91F
*HEBBRONVILLE  PTCLDY    67  64  92 N3        29.97F
MCALLEN        PTCLDY    72  67  84 NE3       29.92F
*WESLACO       MOCLDY    69  65  86 CALM      29.91F
FALFURRIAS     MOCLDY    73  68  86 E6        29.93F
EDINBURG       PTCLDY    70  65  86 CALM      29.92F
*ZAPATA        PTCLDY    67  65  94 N5        29.94F
$$

TXZ213>215-236>238-242>244-246-247-251-254-255-201000-
CMAN STATIONS

STATION/POSITION TIME  TEMP    WIND        PRES    WAVE
                       AIR SEA DIR/SP/G            HT/PER
                 (UTC) (F)     (DEG/KT/KT) (MB)    (FT/S)
SABINE PASS      0900   65 75   70/  6/  7 1016.4
SEA RIM ST PARK  0900   63      60/  7/  9 1016.7
NORTH JETTY/GLS  0900   74 78  120/ 13/ 16   N/A
EAGLE POINT      0900   71 76   80/ 12/ 13 1016.0
MORGANS POINT    0900   69      70/  9/ 10 1016.0
MISSION/ARANSAS  0800           60/ 10     1016.0
PORT O`CONNOR    0900           80/ 16/ 19   N/A
PORT ARANSAS     0900   78 79   70/ 14/ 15 1014.2
MALAQUITE BEACH  0900   79 79   70/ 14/ 16 1012.9
BAFFIN BAY       0900   78 82   70/ 10/ 11 1013.4
PORT ISABEL      0900   78 79   80/  2/  4 1013.1
$$

GMZ080-GMZ150>470-201000-
OFFSHORE BUOY REPORTS

STATION/POSITION TIME  TEMP    WIND        PRES    WAVE
                       AIR SEA DIR/SP/G            HT/PER
                 (UTC) (F)     (DEG/KT/KT) (MB)    (FT/S)
20 E GALVESTON   0900   74 80   90/ 14/ 16 1015.1    3/ 4
90 E PT ARANSAS  0900   78 81   70/ 17/ 21 1014.2    5/ 6
35 NE PT MANSFLD 0900   80 80  120/ 12/ 14 1012.4    4/ 6
200 E PT ISABEL  0900   80 82  110/ 12/ 14 1012.9    4/ 6
$$



709
ASUS44 KFWD 200910
RWRTX
NORTH TEXAS HOURLY WEATHER ROUNDUP
NATIONAL WEATHER SERVICE FORT WORTH TX
400 AM CDT MON OCT 20 2014

NOTE: "FAIR" INDICATES FEW OR NO CLOUDS BELOW 12,000 FEET WITH NO
SIGNIFICANT WEATHER AND/OR OBSTRUCTIONS TO VISIBILITY.

TXZ118-119-201000-
DALLAS/FORT WORTH METROPLEX

CITY           SKY/WX    TMP DP  RH WIND       PRES   REMARKS
DFW AIRPORT    MOCLDY    59  53  80 CALM      30.04S
DALLAS LOVE    MOCLDY    61  53  75 SE5       30.05S
FTW MEACHAM    CLEAR     63  56  78 CALM      30.04S
DAL-EXECUTIVE  PTCLDY    60  55  83 SE3       30.04S
FTW-ALLIANCE   PTCLDY    58  55  90 CALM      30.05R
FTW-NAS-JRB    PTCLDY    66  54  65 CALM      30.09S
FTW-SPINKS     PTCLDY    61  56  85 CALM      30.06S
ARLINGTON      PTCLDY    61  54  77 CALM      30.04S
GRAND PRAIRIE  CLEAR     63  56  79 CALM      30.06S
ADDISON        CLEAR     62  55  77 SE6       30.07R
MESQUITE       PTCLDY    56  52  87 CALM      30.05S
LANCASTER      PTCLDY    55  51  85 CALM      30.05F
$$

TXZ091>094-102>105-117-120-121-131>134-201000-
NORTH CENTRAL TEXAS

CITY           SKY/WX    TMP DP  RH WIND       PRES   REMARKS
SHRMAN/DENISON CLEAR     58  53  81 CALM      30.06S
GAINESVILLE    CLEAR     55  52  89 MISG      30.07S
BOWIE          CLEAR     57  56  96 CALM      30.06S
BRIDGEPORT     PTCLDY    55  55 100 CALM      30.07S
DECATUR        PTCLDY    60  56  86 CALM      30.06F
DENTON         CLEAR     56  54  93 CALM      30.05R
MCKINNEY       CLEAR     54  51  90 CALM      30.05S
GREENVILLE     CLEAR     52  48  87 CALM      30.06S
ROCKWALL       CLEAR     57  52  82 SE5       30.04S
TERRELL        PTCLDY    59  52  77 CALM      30.06R
WAXAHACHIE     PTCLDY    59  56  89 CALM      30.05F
CLEBURNE       PTCLDY    61  59  94 CALM      30.07R
GRANBURY       PTCLDY    62  58  85 CALM      30.06S
$$

TXZ083>090-098>101-113>116-127>130-139>142-154-155-201000-
WESTERN NORTH TEXAS

CITY           SKY/WX    TMP DP  RH WIND       PRES   REMARKS
WICHITA FALLS  CLEAR     59  56  89 S8        30.04S
WF-KICKAPOO    FAIR      60  56  87 S5        30.06R
VERNON         CLEAR     61  57  88 S6        30.05S
ABILENE        MOCLDY    64  59  83 S8        30.05F
ABILENE-DYESS  MOCLDY    63  59  88 S9        30.04S
BRECKENRIDGE   PTCLDY    64  61  92 CALM      30.05S FOG
GRAHAM         PTCLDY    60  58  94 CALM      30.04S
MINERAL WELLS  MOCLDY    60  56  86 CALM      30.04S
STEPHENVILLE   PTCLDY    60  57  90 CALM      30.09S
COMANCHE       CLEAR     60  60 100 CALM      30.06S FOG
BROWNWOOD      PTCLDY    59  57  94 CALM      30.05F FOG
COLEMAN        PTCLDY    60  60  98 CALM      30.06S
BRADY          CLEAR     61  61 100 SE5       30.04F
$$

TXZ143>147-156>162-174-175-201000-
CENTRAL TEXAS

CITY           SKY/WX    TMP DP  RH WIND       PRES   REMARKS
WACO           CLEAR     57  56  96 CALM      30.05S
WACO-MCGREGOR  CLEAR     59  52  77 CALM      30.06S
HILLSBORO      PTCLDY    62  55  76 SE3       30.04F
CORSICANA      PTCLDY    60  55  83 S5        30.05F
MEXIA          CLEAR     58  56  91 CALM      30.04S
HEARNE         CLEAR     59  57  93 CALM      30.05R
CAMERON        CLEAR     61  59  94 CALM      30.03S
TEMPLE         MOCLDY    61  55  82 SE5       30.04S
KILLEEN        PTCLDY    64  61  88 CALM      30.04S
KILLEEN-SKYLRK PTCLDY    64  55  72 E5        30.04S
FORT HOOD      MOCLDY    63  60  90 CALM      30.04S
GATESVILLE     CLEAR     57  57 100 CALM      30.07S FOG
HAMILTON       CLEAR     59  59 100 S6        30.06S FOG
LAMPASAS       PTCLDY    60  59  96 CALM      30.04S
$$

TXZ095>097-106>112-122>126-135>138-148>153-164>167-201000-
EAST TEXAS

CITY           SKY/WX    TMP DP  RH WIND       PRES   REMARKS
PARIS          CLEAR     52  43  71 SE5       30.06S
SULPHUR SPRNGS CLEAR     52  51  97 CALM      30.08S
MOUNT PLEASANT CLEAR     49  49  99 CALM      30.07F
MINEOLA        PTCLDY    52  52 100 CALM      30.06S
TYLER          PTCLDY    56  51  84 CALM      30.05S
LONGVIEW       CLEAR     51  49  92 CALM      30.05F
MARSHALL       CLEAR     53  51  92 CALM      30.08S
ATHENS         PTCLDY    54  52  94 CALM      30.04S
PALESTINE      CLEAR     60  55  83 CALM      30.05S
JACKSONVILLE   CLEAR     59  51  76 CALM      30.06S
HENDERSON      CLEAR     51  51  99 CALM      30.06F
NACOGDOCHES    CLEAR     50  46  87 CALM      30.05F
LUFKIN         CLEAR     57  53  86 CALM      30.04S
$$

SUPPLEMENTAL OBSERVATIONS (CENTRAL)

CITY           SKY/WX    TMP DP  RH WIND       PRES   REMARKS
CADDO GRASSLND   N/A     54  50  87 NE2         N/A
PAT MAYSE LAKE   N/A     50  46  87 NW3         N/A
GREENVILLE       N/A     52  48  87 S1          N/A
CEDAR HILL       N/A     63  54  72 S6          N/A
MCGREGOR         N/A     59  54  82 CALM        N/A
TEMPLE           N/A     63  59  88 E2          N/A
$$

SUPPLEMENTAL OBSERVATIONS (WEST)

CITY           SKY/WX    TMP DP  RH WIND       PRES   REMARKS
MILLERS CREEK    N/A     61  54  77 S5          N/A
LBJ GRASSLAND    N/A     59  54  82 N1          N/A
GRANBURY         N/A     61  57  88 CALM        N/A
HAMBY            N/A     64  59  82 S7          N/A
IVIE RESERVOIR   N/A     61  55  82 E5          N/A
COLORADO BEND    N/A     59  55  88 CALM        N/A
$$

SUPPLEMENTAL OBSERVATIONS (EAST)

CITY           SKY/WX    TMP DP  RH WIND       PRES   REMARKS
CLARKSVILLE      N/A     54  50  87 SE3         N/A
TEXARKANA        N/A     45  43  93 CALM        N/A
LINDEN           N/A     48  45  87 CALM        N/A
GILMER           N/A     50  48  93 CALM        N/A
HENDERSON        N/A     52  48  87 N2          N/A
LUFKIN           N/A     54  50  87 MISG        N/A
N SABINE NF      N/A     48  45  87 MISG        N/A
$$

SUPPLEMENTAL OBSERVATIONS ARE A COLLECTION OF AUTOMATED INSTRUMENTS
THAT ARE MAINTAINED BY A VARIETY OF FEDERAL AND STATE AGENCIES.
CERTAIN ELEMENTS...SUCH AS HUMIDITY VALUES AND SUSTAINED WIND
SPEEDS...MAY BE APPROXIMATED.